Theta_e
313 312 311 310 310 311 314 316 316 315 313 313 313 315 315 313 313 314 316 321 322 323 332 336 340 342 342 347 348 348 352 346 352 347 354 351 347 345 343 341 345 344 342 341 340
315 314 312 310 310 312 315 316 315 313 312 312 313 314 313 313 313 319 320 320 319 324 333 338 342 341 343 344 344 350 354 353 351 349 351 351 350 346 343 343 344 343 343 341 340
316 315 313 312 311 313 315 316 317 319 320 321 321 315 312 312 318 323 323 321 318 327 334 333 340 339 338 338 343 350 355 349 347 347 346 351 346 348 344 344 345 344 343 341 341
318 317 315 314 313 313 315 316 318 320 321 321 322 321 314 313 337 324 321 320 318 325 328 331 338 338 337 339 343 353 350 349 347 347 346 349 349 348 346 346 344 343 342 341 341
320 318 317 315 314 314 315 317 319 320 320 321 322 324 323 329 334 330 325 318 319 323 329 331 337 338 336 341 345 350 348 348 348 348 350 348 348 349 341 343 346 343 342 342 341
322 321 319 317 315 315 316 317 319 319 319 321 322 323 324 335 331 327 316 316 322 323 326 330 337 335 333 339 348 345 348 348 347 347 347 348 350 350 342 344 344 343 343 343 342
323 323 322 319 316 315 317 318 318 319 319 321 322 322 328 334 331 326 320 322 324 324 325 327 334 333 333 344 346 347 351 347 349 348 348 346 348 349 346 348 343 343 343 343 343
323 323 323 322 318 316 319 322 323 321 321 321 323 323 335 330 328 327 324 323 323 324 325 327 333 332 330 343 341 351 351 348 350 347 345 344 351 344 342 340 346 344 343 344 343
323 323 323 324 321 316 321 324 324 324 324 324 324 328 334 331 325 325 324 324 323 324 325 327 329 330 331 345 350 348 349 346 352 347 345 343 347 344 337 342 344 344 342 343 342
322 323 323 323 323 317 320 324 324 324 323 325 326 332 333 329 326 325 321 323 324 323 324 326 330 331 331 337 352 349 347 347 352 351 349 347 345 343 344 348 344 346 345 344 344
321 323 323 322 324 320 318 323 331 329 332 330 333 331 330 325 325 323 322 322 324 323 325 328 332 331 332 336 343 343 342 345 347 351 350 350 350 346 344 346 347 344 345 343 344
321 322 323 323 323 320 316 325 328 326 327 330 331 330 329 325 324 324 321 323 324 324 324 329 329 330 332 335 342 345 345 345 349 347 351 346 352 350 344 347 343 340 345 345 344
321 319 322 322 323 316 318 325 326 326 327 329 330 328 329 327 325 326 323 324 324 324 326 328 329 329 329 331 335 342 344 342 340 344 347 349 352 351 347 345 343 337 346 345 345
318 319 319 321 325 327 325 324 325 325 330 331 330 328 328 327 328 327 326 325 326 326 326 327 327 328 328 329 331 333 336 339 337 337 344 346 357 347 340 344 348 345 342 344 346
318 318 319 320 321 326 327 324 324 325 333 332 331 329 328 328 330 328 326 325 326 325 326 327 326 326 327 327 328 330 335 336 336 335 338 344 347 349 342 346 350 348 346 346 345
317 317 319 320 323 322 327 325 323 329 332 334 331 330 330 329 330 328 327 325 326 326 325 325 326 326 325 326 326 329 332 335 336 335 336 338 345 350 346 348 346 349 346 345 346
315 316 318 318 324 327 324 323 326 328 331 333 332 331 330 330 330 329 327 326 326 326 327 326 325 327 325 324 325 325 328 331 336 337 337 343 345 351 346 346 341 339 346 346 349
315 315 319 320 324 325 325 324 327 329 329 331 333 332 330 331 330 329 328 327 327 327 328 329 327 326 327 326 326 325 327 330 339 348 347 344 345 346 344 340 341 338 345 348 349
315 320 325 327 323 325 325 326 328 330 331 331 331 333 331 330 330 330 330 330 330 328 328 329 330 329 328 327 327 326 327 329 332 342 347 346 342 340 339 340 339 342 346 347 348
315 324 326 326 324 324 327 326 328 329 331 329 329 333 332 332 331 331 331 331 330 330 329 329 330 329 328 327 327 330 329 329 332 338 348 347 345 345 342 339 340 343 341 343 345
321 329 327 325 324 325 329 329 329 328 329 330 329 330 332 332 332 332 332 332 331 330 329 328 330 334 331 327 327 329 332 332 333 334 338 343 345 343 341 341 340 339 339 340 342
324 331 328 325 326 327 329 329 328 329 329 329 328 329 330 332 334 334 334 333 332 330 329 328 329 333 334 330 329 329 331 332 332 336 334 334 341 337 339 339 338 339 340 342 342
324 328 327 326 328 330 329 329 328 328 328 329 329 328 328 330 332 333 333 333 332 331 330 330 329 331 332 334 331 329 331 333 331 332 337 339 343 338 339 338 339 343 341 343 343
324 329 329 328 328 329 330 331 331 327 327 327 328 328 329 328 329 331 332 332 331 331 328 329 330 331 331 338 337 337 331 331 332 334 335 341 342 343 341 340 341 342 341 343 342
327 329 328 331 332 332 331 330 330 331 330 326 328 328 328 328 327 329 331 332 332 330 331 331 331 332 332 335 336 336 336 335 331 332 333 338 337 340 342 341 339 341 341 343 343
325 325 324 325 326 328 326 330 327 329 330 330 330 329 329 328 329 329 328 332 332 332 331 331 335 331 332 332 333 335 336 336 332 333 333 333 336 338 339 339 340 341 342 342 344
322 321 323 325 325 326 327 327 327 328 327 328 330 331 331 331 330 330 330 330 332 333 333 333 335 337 335 332 335 339 337 336 334 335 335 336 336 341 340 339 338 340 341 342 343
Wind_Speed
13 12 10 9 7 6 5 6 8 8 8 6 5 5 7 8 9 10 10 9 13 7 9 5 10 12 15 15 19 6 5 5 7 13 8 18 5 13 11 15 12 8 25 25 23
14 13 12 10 8 6 6 7 8 6 5 3 2 3 5 7 9 14 11 13 13 10 10 8 11 13 17 21 5 5 3 9 6 9 10 9 12 6 17 13 21 25 28 25 23
15 14 13 11 9 7 7 6 5 5 5 5 3 1 4 5 5 9 18 17 13 11 10 13 15 12 20 20 3 10 3 5 7 6 12 18 2 9 6 14 22 24 25 24 22
15 14 13 12 10 7 6 5 4 4 4 5 4 1 4 6 2 6 12 14 13 13 10 10 12 18 18 3 8 6 15 11 7 11 11 12 15 3 16 8 10 23 21 22 20
16 15 14 13 10 8 6 4 3 3 4 4 4 1 3 7 9 4 13 14 13 15 11 12 16 16 14 2 2 6 9 11 9 7 8 6 5 5 8 6 10 20 21 20 18
18 17 16 14 11 8 6 4 3 3 3 3 4 4 5 12 1 4 8 12 11 13 12 13 15 12 11 6 5 10 8 11 14 11 7 6 4 6 12 10 21 19 20 19 17
18 17 17 16 12 9 6 4 3 3 4 4 5 7 8 12 3 2 10 11 12 12 13 12 13 10 16 9 12 11 8 20 14 11 7 7 4 9 9 13 24 22 20 17 19
18 18 17 16 13 9 6 4 4 5 5 5 6 8 9 7 5 9 10 12 13 12 12 10 10 12 19 1 8 6 9 4 8 12 7 11 9 9 12 21 17 27 20 18 17
19 18 17 17 14 9 6 5 6 5 6 7 6 5 15 9 7 11 12 14 14 14 13 10 10 16 21 13 11 9 8 17 10 10 10 6 5 3 16 27 26 16 19 18 17
19 19 17 17 15 10 7 8 9 9 8 10 12 9 15 12 7 11 11 13 14 14 14 15 12 13 15 15 5 4 10 7 16 9 14 11 10 16 29 27 23 4 7 21 19
20 18 17 17 15 10 7 9 7 5 13 16 7 13 6 5 7 9 10 12 14 16 14 18 13 14 18 16 16 17 12 16 12 23 18 13 13 17 16 13 10 13 17 22 22
20 18 16 15 14 8 7 6 10 9 16 23 21 18 2 10 9 11 12 13 14 14 17 15 15 18 17 8 24 19 15 13 15 11 10 2 12 17 19 18 21 26 26 23 25
20 19 17 13 10 4 5 12 10 10 12 20 24 20 16 12 13 17 16 17 12 15 16 17 16 16 19 13 9 18 11 10 1 7 10 15 13 5 4 18 25 29 24 19 21
20 19 18 12 5 4 10 5 7 9 7 14 20 15 19 14 14 16 17 16 10 13 15 16 16 13 8 10 12 14 9 12 6 7 4 5 3 5 12 15 18 26 25 23 24
20 19 14 14 12 7 6 5 7 7 6 14 18 8 18 18 13 10 16 19 15 12 11 15 12 16 12 15 12 16 1 8 11 9 13 11 5 6 5 15 21 23 26 24 29
18 18 15 10 12 7 10 7 6 6 9 11 10 12 16 19 10 12 15 17 12 15 13 17 15 11 16 13 15 17 11 11 12 12 12 18 8 6 10 17 8 17 34 32 31
19 16 17 12 7 3 5 7 6 9 5 10 19 16 17 16 17 12 12 14 12 9 12 12 16 10 11 15 17 16 15 10 11 10 7 8 6 8 19 16 16 10 29 38 29
19 15 13 11 8 8 5 8 11 11 19 8 9 14 15 17 15 13 12 13 15 18 15 14 15 19 13 16 14 17 18 14 8 6 4 13 8 8 22 15 52 55 21 18 23
19 8 6 6 7 7 11 11 8 16 15 16 6 13 17 17 16 18 17 16 17 18 17 18 14 18 16 12 19 13 16 21 16 6 3 6 5 1 11 13 13 15 12 11 11
20 9 11 9 7 7 9 17 17 23 20 10 14 11 16 19 19 18 16 17 16 16 15 21 3 13 11 12 18 18 11 13 12 13 9 6 14 10 15 12 14 17 14 14 6
11 7 10 5 9 11 11 15 19 24 21 9 15 19 16 16 16 18 14 14 13 14 12 16 15 4 8 11 16 11 11 10 14 6 7 5 4 14 11 11 12 12 16 15 10
7 5 5 7 10 13 12 18 23 24 18 12 10 18 20 18 15 16 17 15 11 11 14 13 14 9 15 16 15 16 16 14 10 10 9 12 6 6 12 14 12 15 14 12 6
9 17 8 8 8 11 16 18 20 15 12 13 16 15 18 18 15 16 13 16 6 10 12 15 10 10 8 12 15 19 15 14 13 14 3 5 5 6 8 7 13 18 14 12 8
8 5 11 12 17 16 15 15 16 13 16 17 19 16 16 18 16 15 16 15 17 10 7 7 13 12 13 9 4 15 15 13 13 10 8 5 3 4 7 6 12 13 12 13 9
6 7 15 8 9 12 12 14 15 15 15 13 12 16 19 15 16 17 17 18 15 11 10 9 17 18 17 12 14 32 15 20 18 16 13 9 3 7 9 10 13 15 12 12 10
11 14 17 20 22 17 13 14 17 17 17 18 13 14 14 17 18 18 19 17 17 11 14 16 16 19 20 18 4 9 17 21 20 9 10 11 9 14 16 18 19 20 16 12 11
14 15 14 13 16 15 13 15 16 13 12 17 15 15 13 11 16 15 18 19 15 16 15 13 11 15 19 18 4 6 26 27 13 18 15 13 2 19 14 12 12 16 13 14 12
Wind_Direction
17 12 4 356 347 338 336 336 332 328 319 304 278 250 244 238 232 232 228 229 239 261 216 227 245 254 254 252 246 209 94 277 200 175 202 237 148 118 109 130 112 130 143 140 144
17 13 7 0 354 348 345 344 346 355 6 4 309 249 234 230 233 237 226 233 239 235 211 232 235 248 260 272 283 84 112 221 149 157 186 70 17 336 139 121 92 123 124 140 148
15 11 7 3 357 349 347 350 4 15 29 35 16 305 224 210 247 247 222 239 229 210 208 263 271 286 270 247 299 85 259 68 91 159 157 101 122 300 50 135 134 132 137 148 152
14 11 5 359 352 345 341 345 356 13 28 25 16 346 215 191 287 181 204 230 215 201 231 259 254 259 265 198 248 89 292 92 103 142 153 126 200 194 20 68 131 138 145 152 161
10 8 2 357 349 337 331 328 336 355 6 15 19 7 205 257 250 283 234 208 201 203 230 240 244 255 280 56 86 41 114 117 122 110 100 155 91 158 150 138 202 138 150 160 167
6 3 360 355 347 333 322 313 298 321 333 345 352 310 267 254 295 291 195 192 190 209 232 240 254 321 315 289 115 191 149 141 137 135 112 148 115 326 178 233 152 148 158 169 164
2 359 355 353 346 333 318 305 284 284 295 304 317 308 258 262 184 171 181 196 198 214 235 237 259 284 266 32 340 156 82 14 147 151 134 149 157 358 277 341 152 153 164 175 173
354 354 351 349 343 331 315 301 292 274 269 279 298 298 263 205 218 214 203 208 214 224 241 268 250 268 285 128 260 134 93 280 175 127 142 179 139 13 344 317 291 156 166 196 165
345 347 347 343 340 321 297 290 293 259 258 257 279 274 264 220 231 213 207 209 212 226 233 256 260 260 258 213 225 49 12 343 282 143 146 149 110 55 197 260 267 160 160 168 166
338 338 340 338 335 319 279 281 284 261 254 244 238 266 235 250 194 188 204 204 210 219 229 239 245 246 243 252 186 101 298 265 258 226 190 152 181 199 212 214 193 127 229 172 157
332 331 333 333 330 318 265 285 286 226 217 227 212 235 164 171 172 195 195 209 200 212 221 218 231 238 245 239 129 150 190 237 259 181 176 193 176 187 199 207 191 183 231 180 186
326 327 326 327 325 308 246 236 345 322 296 244 244 231 252 172 188 186 182 188 196 211 218 221 230 247 258 271 144 164 155 250 175 161 123 128 233 169 182 186 175 198 218 202 181
323 324 323 323 320 301 254 264 295 313 287 272 222 223 207 192 215 180 192 219 195 218 216 240 221 222 260 274 231 203 203 252 275 169 171 155 250 106 211 200 188 202 225 198 204
320 320 323 321 322 272 267 267 267 310 280 241 185 211 200 207 229 204 194 211 226 229 233 230 262 279 232 264 266 264 264 200 205 270 250 220 179 102 303 292 203 212 217 193 164
319 316 320 311 294 253 302 314 286 287 278 127 172 186 187 197 216 196 187 218 248 217 250 242 233 248 221 251 247 264 18 265 282 272 260 179 190 131 174 259 233 203 202 213 191
317 314 310 305 294 278 277 290 273 238 253 177 132 172 184 211 205 137 183 223 234 262 231 262 268 235 253 235 244 253 242 213 236 247 262 238 196 193 186 230 345 216 191 198 203
317 307 296 267 220 218 274 239 219 241 213 170 162 188 217 194 232 160 194 205 229 229 236 223 253 221 245 233 223 236 246 249 240 228 269 111 206 187 213 182 147 173 251 227 195
320 303 292 262 238 269 245 223 238 241 237 288 177 182 204 221 210 178 202 226 218 255 269 225 210 217 206 239 239 209 233 235 240 4 30 332 17 164 193 170 167 193 188 141 180
328 320 276 305 207 211 222 220 225 245 292 312 208 212 195 220 230 200 205 223 223 207 253 276 236 171 204 212 245 195 231 255 263 97 71 308 323 278 135 140 138 129 126 153 170
334 309 245 201 215 205 227 241 249 258 298 290 293 248 251 203 219 222 225 214 235 229 207 264 264 172 192 196 238 260 218 233 249 251 189 194 267 245 166 166 150 146 159 134 134
330 268 153 194 173 212 229 240 248 262 274 283 277 283 270 249 235 228 220 245 221 239 200 253 275 277 252 206 239 221 252 262 277 312 283 187 263 145 167 161 159 154 154 139 154
307 275 157 191 208 229 241 246 262 283 289 251 263 281 287 290 280 241 245 237 200 214 195 221 262 215 224 199 216 255 214 226 255 238 256 290 181 247 137 146 171 145 126 121 119
306 293 237 213 252 240 244 235 255 273 284 267 262 250 276 276 290 286 281 248 242 222 236 213 229 262 242 274 201 223 236 249 250 267 65 335 109 79 82 111 130 119 129 130 149
297 291 207 212 249 280 292 292 294 235 250 278 286 277 259 262 264 275 279 277 261 218 41 312 263 250 262 148 356 297 237 259 256 245 207 118 136 42 125 132 128 135 150 150 152
256 298 341 296 287 329 313 309 299 296 281 220 265 262 273 272 269 264 254 270 268 169 259 254 253 260 269 165 158 234 286 272 244 257 269 155 73 148 191 178 162 150 162 152 157
302 343 328 299 301 291 278 266 274 278 271 280 254 252 261 244 260 268 259 254 253 245 216 229 248 258 264 268 244 310 265 282 224 256 286 264 164 149 181 189 163 158 163 166 168
338 322 304 288 288 289 281 276 281 306 284 303 299 311 287 278 343 332 323 314 296 292 260 246 281 239 249 251 179 36 271 252 203 195 200 245 25 134 144 149 163 153 162 172 177